Skip Page Navigation
NASA JPL Caltech
NASA Logo - Jet Propulsion Laboratory + View the NASA Portal
+ Near-Earth Object (NEO) Program
Search JPL
JPL Home Earth Solar System Stars & Galaxies Technology
JPL Solar System Dynamics
BODIES ORBITS EPHEMERIDES TOOLS PHYSICAL DATA DISCOVERY FAQ SITE MAP
JPL Small-Body Database Browser
Search: [ help ]  
14 Irene
Classification: Main-belt Asteroid          SPK-ID: 2000014
Ephemeris | Orbit Diagram | Orbital Elements | Physical Parameters | Discovery Circumstances | Close-Approach Data ]

[ hide orbit diagram ]
Orbit Diagram
Note: Make sure you have Java enabled on your browser to see the applet. This applet is provided as a 3D orbit visualization tool. The applet was implemented using 2-body methods, and hence should not be used for determining accurate long-term trajectories (over several years or decades) or planetary encounter circumstances. For accurate long-term ephemerides, please instead use our Horizons system.
Orbit Viewer

Additional Notes: the orbits shown in the applet are color coded. The planets are white lines, and the asteroid/comet is a blue line. The bright white line indicates the portion of the orbit that is above the ecliptic plane, and the darker portion is below the ecliptic plane. Likewise for the asteroid/comet orbit, the light blue indicates the portion above the ecliptic plane, and the dark blue the portion below the ecliptic plane.

Orbit Viewer applet originally written and kindly provided by Osamu Ajiki (AstroArts), and further modified by Ron Baalke (JPL).


Orbital Elements at Epoch 2456400.5 (2013-Apr-18.0) TDB
Reference: JPL 55 (heliocentric ecliptic J2000)
 Element Value Uncertainty (1-sigma)   Units 
e .1657173675139807 3.3011e-08  
a 2.586095384188182 3.113e-09 AU
q 2.15753446498046 8.6196e-08 AU
i 9.118922356239151 4.3152e-06 deg
node 86.16461775739617 2.2436e-05 deg
peri 97.95475218962599 2.5831e-05 deg
M 3.470897110110399 1.3557e-05 deg
tp 2456385.854490846183
(2013-Apr-03.35449085)
5.7203e-05 JED
period 1519.026098473587
4.16
2.7428e-06
7.509e-09
d
yr
n .2369939531399432 4.2792e-10 deg/d
Q 3.014656303395904 3.6289e-09 AU
  Orbit Determination Parameters
   # obs. used (total)      2159  
   data-arc span      59113 days (161.84 yr)  
   first obs. used      1851-05-20  
   last obs. used      2013-03-24  
   planetary ephem.      DE405  
   SB-pert. ephem.      SB405-CPV-2  
   condition code      0  
   fit RMS      .64657  
   data source      ORB  
   producer      Otto Matic  
   solution date      2013-Apr-29 12:31:19  

Additional Information
 Earth MOID = 1.18193 AU 
 T_jup = 3.385 
[ show covariance matrix ]

Ephemeris | Orbit Diagram | Orbital Elements | Physical Parameters | Discovery Circumstances | Close-Approach Data ]

Physical Parameter Table
Parameter Symbol Value Units Sigma Reference Notes
absolute magnitude H 6.30 mag n/a PDS3 (MPC 17257)  
diameter diameter 152 km n/a Dunham occult. list: Dunham 1998: 167x139 km Yeomans E-mail 2001-Apr-04
rotation period rot_per 15.028 h n/a Asteroid Lightcurve DataBase (Rev. 2013-May-01) Published Reference List:
[Bel'skaya, I.N.; Dovgopol, A.N.; Erikson, A.; Lagerkvist, C.-I.; Oja, T. (1993) Astron. Astrophys. Suppl. Ser. 101, 507-511.]
[Pilcher, F. (2009) Minor Planet Bul. 36, 133-136.]
[Pilcher, F. (2009) Minor Planet Bul. 36, 133-136.]
[Hanus, J.; Durech, J.; Broz, M.; Warner, B.D.; et al. (2011) Astron. Astrophys. 530, A134.]
[Aymami, J.M. (2012) Minor Planet Bul. 39, 179-181.]
geometric albedo albedo 0.159   n/a EAR-A-5-DDR-ALBEDOS-V1.0:TRIAD TRIAD quality code 3
B-V BV .833 mag .018 EAR-A-5-DDR-UBV-MEAN-VALUES-V1.1 #obs=13; phase (min.=1.04, mean=8.54, max.=23.04) deg.
U-B UB .388 mag .031 EAR-A-5-DDR-UBV-MEAN-VALUES-V1.1 #obs=10; phase (min.=1.04, mean=8.02, max.=23.04) deg.
Tholen spectral type spec_T S   n/a EAR-A-5-DDR-TAXONOMY-V4.0 used 7 color indices; used ground-based radiometric albedo
SMASSII spectral type spec_B S   n/a EAR-A-5-DDR-TAXONOMY-V4.0 based on a high-resolution spectrum by Xu et al. (1995) or Bus and Binzel (2002)

14 Irene          Discovered 1851-May-19 by Hind, J. R. at London
Reference: DISCOVERY.DBLast Updated: 2003-08-29

[ show close-approach data ]
Alternate Designations
 1952 TM = A906 QC = A913 EA 
Ephemeris | Orbit Diagram | Orbital Elements | Physical Parameters | Discovery Circumstances | Close-Approach Data ]
ABOUT SSD CREDITS/AWARDS PRIVACY/COPYRIGHT GLOSSARY LINKS
FirstGov 2013-May-22 01:31 UT
(server date/time)  
NASA Home Page
Site Manager:   Donald K. Yeomans
Webmaster  Alan B. Chamberlin